HUN7BX LHBP-LPPR

Flight info

Callsign HUN7BX
Flight time 3h 16m
Altitude 37000
Route GILEP DCT ZOLKU DCT SUNIS DCT DETSA DCT RONOP DCT GIGUS DCT BALSI DCT GIPNO DCT RUSIT DCT ESIDA DCT LERGA DCT MINSO DCT NARAK DCT AGN DCT PIPOR DCT PPN DCT MIRPO DCT DGO DCT NEA DCT ZMR DCT ADORO DCT INKIT
Aircraft B738/M-SDE2E3FGHIJ2J5RWXY/LB1

Departure

Time 2026-05-05 07:46
Airport Budapest Liszt Ferenc International Airport (LHBP)

Arrival

Time 2026-05-05 11:02
Airport Francisco de Sá Carneiro Airport (LPPR)
Time Latitude Longitude Altitude Speed Heading
2026-05-05 07:13 47.43414 19.26131 456 ft 0 kts 132°
2026-05-05 07:35 47.43416 19.26128 456 ft 3 kts 132°
2026-05-05 07:35 47.43429 19.26105 453 ft 3 kts 125°
2026-05-05 07:35 47.43439 19.26080 453 ft 3 kts 116°
2026-05-05 07:36 47.43447 19.26053 455 ft 3 kts 102°
2026-05-05 07:36 47.43448 19.26024 456 ft 3 kts 77°
2026-05-05 07:36 47.43441 19.26003 453 ft 1 kts 42°
2026-05-05 07:36 47.43441 19.26002 453 ft 1 kts 42°
2026-05-05 07:39 47.43443 19.26004 456 ft 1 kts 42°
2026-05-05 07:40 47.43454 19.26020 456 ft 4 kts 42°
2026-05-05 07:40 47.43479 19.26052 456 ft 5 kts 42°
2026-05-05 07:40 47.43507 19.26090 456 ft 5 kts 42°
2026-05-05 07:40 47.43534 19.26126 455 ft 5 kts 42°
2026-05-05 07:41 47.43565 19.26165 456 ft 7 kts 34°
2026-05-05 07:41 47.43611 19.26165 456 ft 7 kts 329°
2026-05-05 07:41 47.43646 19.26116 456 ft 7 kts 313°
2026-05-05 07:41 47.43678 19.26064 456 ft 7 kts 312°
2026-05-05 07:42 47.43709 19.26014 456 ft 7 kts 312°
2026-05-05 07:42 47.43746 19.25975 456 ft 7 kts 345°
2026-05-05 07:42 47.43793 19.25992 456 ft 8 kts 36°
2026-05-05 07:42 47.43833 19.26044 455 ft 8 kts 43°
2026-05-05 07:43 47.43871 19.26095 457 ft 7 kts 42°
2026-05-05 07:43 47.43908 19.26144 457 ft 7 kts 42°
2026-05-05 07:43 47.43944 19.26192 457 ft 7 kts 42°
2026-05-05 07:43 47.43985 19.26247 458 ft 9 kts 42°
2026-05-05 07:44 47.44032 19.26310 461 ft 9 kts 45°
2026-05-05 07:44 47.44064 19.26388 468 ft 9 kts 70°
2026-05-05 07:44 47.44070 19.26477 471 ft 9 kts 97°
2026-05-05 07:44 47.44047 19.26557 469 ft 8 kts 128°
2026-05-05 07:45 47.44000 19.26634 469 ft 18 kts 132°
2026-05-05 07:45 47.43754 19.27031 472 ft 86 kts 132°
2026-05-05 07:45 47.43206 19.27914 457 ft 147 kts 132°
2026-05-05 07:45 47.42414 19.29200 619 ft 184 kts 133°
2026-05-05 07:46 47.41687 19.30735 1455 ft 179 kts 118°
2026-05-05 07:46 47.41159 19.32351 2427 ft 171 kts 125°
2026-05-05 07:46 47.40521 19.33947 2807 ft 195 kts 124°
2026-05-05 07:46 47.39824 19.35760 3185 ft 208 kts 126°
2026-05-05 07:47 47.39056 19.37608 3611 ft 221 kts 126°
2026-05-05 07:47 47.38076 19.39528 3846 ft 237 kts 142°
2026-05-05 07:47 47.36623 19.40588 4461 ft 240 kts 172°
2026-05-05 07:47 47.34943 19.40249 4912 ft 253 kts 206°
2026-05-05 07:48 47.33597 19.38573 5680 ft 258 kts 232°
2026-05-05 07:48 47.32655 19.36316 6451 ft 258 kts 238°
2026-05-05 07:48 47.31769 19.33996 6873 ft 261 kts 239°
2026-05-05 07:48 47.31119 19.31479 6931 ft 266 kts 258°
2026-05-05 07:49 47.30940 19.28816 6993 ft 264 kts 264°
2026-05-05 07:49 47.30864 19.26095 7012 ft 268 kts 265°
2026-05-05 07:49 47.30799 19.23323 7517 ft 272 kts 264°
2026-05-05 07:49 47.30723 19.20521 8260 ft 274 kts 264°
2026-05-05 07:50 47.30634 19.17692 8966 ft 279 kts 263°
2026-05-05 07:50 47.30530 19.14816 9667 ft 283 kts 263°
2026-05-05 07:50 47.30417 19.11897 10302 ft 288 kts 263°
2026-05-05 07:50 47.30286 19.08826 10482 ft 311 kts 263°
2026-05-05 07:51 47.30141 19.05575 10652 ft 332 kts 263°
2026-05-05 07:51 47.29982 19.02079 10875 ft 349 kts 263°
2026-05-05 07:51 47.29815 18.98447 11390 ft 356 kts 263°
2026-05-05 07:51 47.29647 18.94833 12050 ft 359 kts 263°
2026-05-05 07:52 47.29474 18.91156 12702 ft 361 kts 263°
2026-05-05 07:52 47.29297 18.87441 13337 ft 365 kts 263°
2026-05-05 07:52 47.29117 18.83698 13959 ft 368 kts 263°
2026-05-05 07:52 47.28932 18.79924 14526 ft 372 kts 263°
2026-05-05 07:53 47.28743 18.76096 15110 ft 374 kts 263°
2026-05-05 07:53 47.28552 18.72251 15689 ft 377 kts 263°
2026-05-05 07:53 47.28358 18.68390 16235 ft 380 kts 263°
2026-05-05 07:53 47.28163 18.64538 16776 ft 383 kts 263°
2026-05-05 07:54 47.27963 18.60606 17323 ft 386 kts 263°
2026-05-05 07:54 47.27759 18.56635 17879 ft 389 kts 263°
2026-05-05 07:54 47.27553 18.52636 18395 ft 392 kts 263°
2026-05-05 07:54 47.27344 18.48610 18862 ft 395 kts 263°
2026-05-05 07:55 47.27132 18.44570 19352 ft 397 kts 263°
2026-05-05 07:55 47.26918 18.40505 19848 ft 399 kts 263°
2026-05-05 07:55 47.26701 18.36415 20315 ft 401 kts 263°
2026-05-05 07:55 47.26483 18.32312 20789 ft 403 kts 264°
2026-05-05 07:56 47.26262 18.28187 21263 ft 405 kts 264°
2026-05-05 07:56 47.26037 18.24042 21710 ft 407 kts 264°
2026-05-05 07:56 47.25810 18.19883 22141 ft 409 kts 264°
2026-05-05 07:56 47.25583 18.15746 22560 ft 411 kts 264°
2026-05-05 07:57 47.25351 18.11537 23032 ft 412 kts 264°
2026-05-05 07:57 47.25116 18.07309 23422 ft 415 kts 264°
2026-05-05 07:57 47.24877 18.03053 23779 ft 418 kts 264°
2026-05-05 07:57 47.24636 17.98786 24162 ft 418 kts 264°
2026-05-05 07:58 47.24393 17.94503 24496 ft 420 kts 264°
2026-05-05 07:58 47.24150 17.90245 24794 ft 423 kts 264°
2026-05-05 07:58 47.23902 17.85933 25148 ft 424 kts 264°
2026-05-05 07:58 47.23651 17.81592 25441 ft 426 kts 264°
2026-05-05 07:59 47.23398 17.77234 25764 ft 428 kts 264°
2026-05-05 07:59 47.23140 17.72843 26077 ft 430 kts 263°
2026-05-05 07:59 47.22880 17.68452 26427 ft 430 kts 263°
2026-05-05 07:59 47.22620 17.64060 26638 ft 433 kts 263°
2026-05-05 08:00 47.22354 17.59631 26894 ft 435 kts 263°
2026-05-05 08:00 47.22083 17.55176 27084 ft 437 kts 263°
2026-05-05 08:00 47.21813 17.50753 27321 ft 439 kts 264°
2026-05-05 08:00 47.21542 17.46279 27583 ft 440 kts 263°
2026-05-05 08:01 47.21267 17.41776 27808 ft 441 kts 263°
2026-05-05 08:01 47.20989 17.37267 28000 ft 444 kts 263°
2026-05-05 08:01 47.20711 17.32786 28223 ft 445 kts 263°
2026-05-05 08:01 47.20425 17.28225 28457 ft 446 kts 263°
2026-05-05 08:02 47.20139 17.23671 28697 ft 446 kts 263°
2026-05-05 08:02 47.19850 17.19116 28959 ft 447 kts 263°
2026-05-05 08:02 47.19561 17.14578 29271 ft 446 kts 263°
2026-05-05 08:02 47.19270 17.10039 29575 ft 445 kts 263°
2026-05-05 08:03 47.18978 17.05519 29865 ft 444 kts 263°
2026-05-05 08:03 47.18688 17.01052 30137 ft 443 kts 263°
2026-05-05 08:03 47.18393 16.96535 30385 ft 443 kts 263°
2026-05-05 08:03 47.18096 16.92025 30611 ft 443 kts 263°
2026-05-05 08:04 47.17796 16.87505 30859 ft 442 kts 263°
2026-05-05 08:04 47.17497 16.83018 31114 ft 441 kts 263°
2026-05-05 08:04 47.17197 16.78526 31359 ft 440 kts 263°
2026-05-05 08:04 47.16895 16.74046 31579 ft 440 kts 263°
2026-05-05 08:05 47.16592 16.69567 31808 ft 440 kts 263°
2026-05-05 08:05 47.16291 16.65155 32063 ft 439 kts 263°
2026-05-05 08:05 47.15985 16.60691 32310 ft 438 kts 263°
2026-05-05 08:05 47.15678 16.56237 32539 ft 438 kts 263°
2026-05-05 08:06 47.15368 16.51771 32764 ft 437 kts 263°
2026-05-05 08:06 47.15059 16.47330 32991 ft 437 kts 263°
2026-05-05 08:06 47.14748 16.42893 33232 ft 436 kts 263°
2026-05-05 08:06 47.14437 16.38464 33495 ft 435 kts 263°
2026-05-05 08:07 47.14123 16.34040 33735 ft 434 kts 264°
2026-05-05 08:07 47.13823 16.29631 33960 ft 433 kts 264°
2026-05-05 08:07 47.13535 16.25285 34133 ft 433 kts 264°
2026-05-05 08:07 47.13247 16.20890 34307 ft 432 kts 264°
2026-05-05 08:08 47.12957 16.16496 34514 ft 431 kts 264°
2026-05-05 08:08 47.12666 16.12111 34679 ft 431 kts 264°
2026-05-05 08:08 47.12372 16.07725 34834 ft 431 kts 264°
2026-05-05 08:08 47.12077 16.03350 35001 ft 430 kts 264°
2026-05-05 08:09 47.11779 15.98982 35171 ft 430 kts 264°
2026-05-05 08:09 47.11480 15.94620 35326 ft 430 kts 264°
2026-05-05 08:09 47.11178 15.90239 35479 ft 429 kts 264°
2026-05-05 08:09 47.10879 15.85934 35647 ft 429 kts 264°
2026-05-05 08:10 47.10574 15.81567 35810 ft 428 kts 263°
2026-05-05 08:10 47.10269 15.77217 35908 ft 429 kts 263°
2026-05-05 08:10 47.09651 15.68487 35919 ft 429 kts 263°
2026-05-05 08:11 47.09033 15.59851 35913 ft 427 kts 263°
2026-05-05 08:11 47.08407 15.51192 35912 ft 426 kts 263°
2026-05-05 08:12 47.07882 15.44007 35915 ft 425 kts 263°
2026-05-05 08:12 47.07246 15.35372 35914 ft 424 kts 263°
2026-05-05 08:13 47.06606 15.26780 35918 ft 424 kts 263°
2026-05-05 08:13 47.05959 15.18185 35921 ft 424 kts 263°
2026-05-05 08:14 47.05307 15.09602 35930 ft 424 kts 263°
2026-05-05 08:14 47.04650 15.01048 35936 ft 424 kts 263°
2026-05-05 08:15 47.03984 14.92457 35952 ft 424 kts 263°
2026-05-05 08:15 47.03312 14.83869 35943 ft 424 kts 263°
2026-05-05 08:16 47.02634 14.75294 35953 ft 424 kts 262°
2026-05-05 08:16 47.01946 14.66692 35936 ft 424 kts 262°
2026-05-05 08:17 47.01253 14.58087 35947 ft 424 kts 262°
2026-05-05 08:17 47.00557 14.49536 35951 ft 425 kts 262°
2026-05-05 08:18 46.99850 14.40924 35952 ft 425 kts 262°
2026-05-05 08:18 46.99135 14.32302 35952 ft 426 kts 262°
2026-05-05 08:19 46.98412 14.23670 35959 ft 427 kts 262°
2026-05-05 08:19 46.97682 14.15030 35952 ft 428 kts 262°
2026-05-05 08:20 46.96949 14.06424 35956 ft 428 kts 262°
2026-05-05 08:20 46.96205 13.97779 35958 ft 427 kts 261°
2026-05-05 08:21 46.95457 13.89161 35958 ft 426 kts 261°
2026-05-05 08:21 46.94706 13.80575 35961 ft 424 kts 261°
2026-05-05 08:22 46.93949 13.72012 35944 ft 424 kts 261°
2026-05-05 08:22 46.93187 13.63458 35961 ft 423 kts 261°
2026-05-05 08:23 46.92422 13.54948 35953 ft 423 kts 261°
2026-05-05 08:23 46.91649 13.46421 35962 ft 422 kts 261°
2026-05-05 08:24 46.90876 13.37961 35964 ft 421 kts 261°
2026-05-05 08:24 46.90092 13.29463 35965 ft 422 kts 261°
2026-05-05 08:25 46.89299 13.20928 35951 ft 423 kts 261°
2026-05-05 08:25 46.88505 13.12448 35974 ft 423 kts 261°
2026-05-05 08:26 46.87699 13.03921 35967 ft 424 kts 260°
2026-05-05 08:26 46.86883 12.95360 35965 ft 424 kts 260°
2026-05-05 08:27 46.86066 12.86849 35966 ft 425 kts 260°
2026-05-05 08:27 46.85233 12.78244 35981 ft 426 kts 260°
2026-05-05 08:28 46.84397 12.69668 35970 ft 427 kts 260°
2026-05-05 08:28 46.83559 12.61147 36010 ft 426 kts 260°
2026-05-05 08:29 46.82703 12.52511 36018 ft 427 kts 260°
2026-05-05 08:30 46.81419 12.39665 36052 ft 427 kts 260°
2026-05-05 08:30 46.80549 12.31066 36045 ft 427 kts 259°
2026-05-05 08:31 46.78840 12.22837 36068 ft 423 kts 245°
2026-05-05 08:31 46.76507 12.14923 36055 ft 423 kts 246°
2026-05-05 08:32 46.74217 12.07016 36041 ft 423 kts 246°
2026-05-05 08:32 46.71955 11.99159 36031 ft 422 kts 246°
2026-05-05 08:33 46.69678 11.91256 36014 ft 422 kts 246°
2026-05-05 08:33 46.67397 11.83366 36003 ft 423 kts 245°
2026-05-05 08:33 46.66250 11.79409 36114 ft 423 kts 245°
2026-05-05 08:34 46.65106 11.75469 36257 ft 421 kts 245°
2026-05-05 08:34 46.63966 11.71545 36436 ft 420 kts 245°
2026-05-05 08:34 46.62838 11.67674 36558 ft 420 kts 245°
2026-05-05 08:34 46.61699 11.63769 36679 ft 420 kts 245°
2026-05-05 08:35 46.60553 11.59848 36802 ft 420 kts 245°
2026-05-05 08:35 46.59408 11.55938 36966 ft 419 kts 245°
2026-05-05 08:35 46.58263 11.52032 36974 ft 421 kts 245°
2026-05-05 08:36 46.55962 11.44205 36988 ft 421 kts 245°
2026-05-05 08:36 46.53655 11.36378 37002 ft 421 kts 245°
2026-05-05 08:37 46.51342 11.28557 36990 ft 421 kts 245°
2026-05-05 08:37 46.49023 11.20740 36985 ft 421 kts 245°
2026-05-05 08:38 46.46698 11.12926 36997 ft 421 kts 245°
2026-05-05 08:38 46.44384 11.05177 37066 ft 420 kts 245°
2026-05-05 08:39 46.42058 10.97408 37067 ft 420 kts 245°
2026-05-05 08:39 46.39725 10.89639 37060 ft 420 kts 245°
2026-05-05 08:40 46.37385 10.81874 37049 ft 419 kts 245°
2026-05-05 08:40 46.35059 10.74179 37050 ft 419 kts 244°
2026-05-05 08:41 46.32716 10.66451 37034 ft 418 kts 244°
2026-05-05 08:41 46.30372 10.58742 37032 ft 418 kts 244°
2026-05-05 08:42 46.28027 10.51057 37026 ft 418 kts 244°
2026-05-05 08:42 46.25678 10.43380 37026 ft 419 kts 244°
2026-05-05 08:43 46.23309 10.35660 37017 ft 420 kts 244°
2026-05-05 08:43 46.20935 10.27949 37008 ft 420 kts 244°
2026-05-05 08:44 46.18571 10.20293 37017 ft 420 kts 244°
2026-05-05 08:44 46.16182 10.12580 37003 ft 420 kts 244°
2026-05-05 08:45 46.13793 10.04891 37012 ft 420 kts 244°
2026-05-05 08:45 46.11400 9.97210 37024 ft 418 kts 244°
2026-05-05 08:46 46.09024 9.89605 36985 ft 418 kts 244°
2026-05-05 08:46 46.06630 9.81971 37012 ft 417 kts 244°
2026-05-05 08:47 46.04232 9.74344 37013 ft 417 kts 244°
2026-05-05 08:47 46.01846 9.66786 37018 ft 416 kts 244°
2026-05-05 08:48 45.99447 9.59196 36999 ft 417 kts 244°
2026-05-05 08:48 45.97032 9.51583 36999 ft 418 kts 244°
2026-05-05 08:49 45.95019 9.45252 37006 ft 419 kts 244°
2026-05-05 08:49 45.92589 9.37633 36997 ft 418 kts 244°
2026-05-05 08:50 45.90159 9.30037 37004 ft 419 kts 244°
2026-05-05 08:50 45.87729 9.22465 36998 ft 417 kts 244°
2026-05-05 08:51 45.86950 9.20042 37017 ft 416 kts 244°
2026-05-05 08:51 45.84683 9.13002 36999 ft 416 kts 244°
2026-05-05 08:52 45.82253 9.05475 37008 ft 415 kts 243°
2026-05-05 08:52 45.79818 8.97959 37014 ft 415 kts 243°
2026-05-05 08:53 45.77379 8.90450 37007 ft 415 kts 243°
2026-05-05 08:53 45.74935 8.82948 37013 ft 416 kts 243°
2026-05-05 08:54 45.72479 8.75431 36983 ft 415 kts 243°
2026-05-05 08:54 45.70036 8.67974 36983 ft 412 kts 243°
2026-05-05 08:55 45.67620 8.60620 36995 ft 409 kts 243°
2026-05-05 08:55 45.65197 8.53267 36996 ft 407 kts 243°
2026-05-05 08:56 45.62779 8.45949 36991 ft 406 kts 243°
2026-05-05 08:56 45.60378 8.38705 37000 ft 405 kts 243°
2026-05-05 08:57 45.57961 8.31431 36998 ft 405 kts 243°
2026-05-05 08:57 45.55537 8.24156 36994 ft 406 kts 243°
2026-05-05 08:58 45.53105 8.16878 36991 ft 407 kts 243°
2026-05-05 08:58 45.50659 8.09578 36990 ft 408 kts 242°
2026-05-05 08:59 45.48220 8.02316 36985 ft 409 kts 242°
2026-05-05 08:59 45.45753 7.94995 36990 ft 410 kts 242°
2026-05-05 09:00 45.43276 7.87660 36997 ft 411 kts 242°
2026-05-05 09:00 45.40793 7.80333 36998 ft 411 kts 242°
2026-05-05 09:01 45.38304 7.73004 37013 ft 411 kts 242°
2026-05-05 09:01 45.35804 7.65665 37004 ft 411 kts 242°
2026-05-05 09:02 45.33316 7.58381 37013 ft 411 kts 242°
2026-05-05 09:02 45.30813 7.51072 37019 ft 411 kts 242°
2026-05-05 09:03 45.28336 7.43740 37008 ft 412 kts 246°
2026-05-05 09:03 45.26599 7.36016 36984 ft 412 kts 250°
2026-05-05 09:04 45.24929 7.28208 36997 ft 412 kts 250°
2026-05-05 09:04 45.23233 7.20443 37002 ft 412 kts 250°
2026-05-05 09:05 45.23213 7.20354 37003 ft 412 kts 250°
2026-05-05 09:06 45.21652 7.13323 36997 ft 412 kts 250°
2026-05-05 09:06 45.19932 7.05610 37006 ft 411 kts 250°
2026-05-05 09:07 45.18196 6.97855 36997 ft 412 kts 250°
2026-05-05 09:07 45.16456 6.90117 36980 ft 412 kts 250°
2026-05-05 09:08 45.14711 6.82385 36964 ft 411 kts 250°
2026-05-05 09:08 45.12974 6.74716 36950 ft 411 kts 250°
2026-05-05 09:09 45.11223 6.67009 36942 ft 411 kts 250°
2026-05-05 09:09 45.09462 6.59300 36942 ft 411 kts 250°
2026-05-05 09:10 45.07696 6.51584 36957 ft 410 kts 249°
2026-05-05 09:10 45.05934 6.43908 36891 ft 409 kts 250°
2026-05-05 09:11 45.04182 6.36295 36952 ft 408 kts 249°
2026-05-05 09:11 45.02413 6.28652 36952 ft 409 kts 249°
2026-05-05 09:12 45.00647 6.21047 36918 ft 408 kts 249°
2026-05-05 09:12 44.98864 6.13399 36939 ft 410 kts 249°
2026-05-05 09:13 44.97067 6.05721 36966 ft 410 kts 249°
2026-05-05 09:13 44.95272 5.98055 36906 ft 414 kts 249°
2026-05-05 09:14 44.93451 5.90337 36948 ft 414 kts 249°
2026-05-05 09:14 44.91617 5.82574 36917 ft 418 kts 249°
2026-05-05 09:15 44.89775 5.74800 36906 ft 416 kts 249°
2026-05-05 09:15 44.87958 5.67157 36923 ft 411 kts 249°
2026-05-05 09:16 44.86140 5.59541 36911 ft 408 kts 249°
2026-05-05 09:16 44.84337 5.52011 36914 ft 404 kts 249°
2026-05-05 09:17 44.82521 5.44460 36935 ft 408 kts 249°
2026-05-05 09:17 44.80695 5.36892 36924 ft 412 kts 249°
2026-05-05 09:18 44.78836 5.29213 36938 ft 414 kts 249°
2026-05-05 09:18 44.76974 5.21541 36932 ft 414 kts 249°
2026-05-05 09:19 44.75120 5.13923 36927 ft 406 kts 249°
2026-05-05 09:19 44.73284 5.06407 36935 ft 404 kts 248°
2026-05-05 09:20 44.71461 4.98977 36934 ft 403 kts 248°
2026-05-05 09:20 44.69626 4.91523 36944 ft 403 kts 248°
2026-05-05 09:21 44.67778 4.84039 36930 ft 404 kts 248°
2026-05-05 09:21 44.65929 4.76574 36930 ft 405 kts 248°
2026-05-05 09:22 44.64078 4.69126 36935 ft 407 kts 248°
2026-05-05 09:22 44.62203 4.61604 36925 ft 409 kts 248°
2026-05-05 09:23 44.60313 4.54046 36928 ft 411 kts 248°
2026-05-05 09:23 44.58412 4.46473 36922 ft 413 kts 248°
2026-05-05 09:24 44.56493 4.38850 36914 ft 414 kts 248°
2026-05-05 09:24 44.54563 4.31207 36919 ft 416 kts 248°
2026-05-05 09:25 44.52626 4.23563 36913 ft 416 kts 248°
2026-05-05 09:25 44.50694 4.15960 36924 ft 416 kts 248°
2026-05-05 09:26 44.49076 4.09619 36902 ft 415 kts 248°
2026-05-05 09:26 44.46811 4.00766 36906 ft 414 kts 248°
2026-05-05 09:27 44.45191 3.94452 36896 ft 412 kts 248°
2026-05-05 09:27 44.43252 3.86916 36926 ft 410 kts 248°
2026-05-05 09:28 44.41318 3.79431 36930 ft 409 kts 248°
2026-05-05 09:28 44.39377 3.71945 36927 ft 409 kts 248°
2026-05-05 09:29 44.37433 3.64464 36932 ft 409 kts 248°
2026-05-05 09:29 44.35482 3.56986 36940 ft 409 kts 248°
2026-05-05 09:30 44.33533 3.49533 36940 ft 409 kts 248°
2026-05-05 09:30 44.31592 3.42133 36940 ft 408 kts 248°
2026-05-05 09:31 44.29630 3.34678 36942 ft 410 kts 247°
2026-05-05 09:31 44.27652 3.27192 36952 ft 411 kts 247°
2026-05-05 09:32 44.25663 3.19684 36952 ft 413 kts 247°
2026-05-05 09:32 44.23661 3.12149 36958 ft 415 kts 247°
2026-05-05 09:33 44.21652 3.04615 36961 ft 417 kts 247°
2026-05-05 09:33 44.19622 2.97020 36960 ft 418 kts 247°
2026-05-05 09:34 44.17582 2.89415 36955 ft 419 kts 247°
2026-05-05 09:34 44.15534 2.81802 36963 ft 419 kts 247°
2026-05-05 09:35 44.13495 2.74251 36956 ft 419 kts 247°
2026-05-05 09:35 44.10414 2.62881 36965 ft 418 kts 247°
2026-05-05 09:36 44.08351 2.55299 36961 ft 418 kts 247°
2026-05-05 09:36 44.06286 2.47733 36967 ft 417 kts 247°
2026-05-05 09:37 44.04236 2.40245 36971 ft 416 kts 247°
2026-05-05 09:37 44.02173 2.32732 36966 ft 416 kts 247°
2026-05-05 09:38 44.00104 2.25222 36975 ft 415 kts 247°
2026-05-05 09:38 43.98028 2.17709 36975 ft 416 kts 247°
2026-05-05 09:39 43.95963 2.10257 36968 ft 416 kts 247°
2026-05-05 09:39 43.93878 2.02755 36976 ft 416 kts 247°
2026-05-05 09:40 43.91784 1.95247 36968 ft 416 kts 247°
2026-05-05 09:40 43.89689 1.87755 36968 ft 417 kts 247°
2026-05-05 09:41 43.87599 1.80307 36969 ft 417 kts 247°
2026-05-05 09:41 43.85488 1.72806 36965 ft 417 kts 247°
2026-05-05 09:42 43.83369 1.65296 36976 ft 418 kts 247°
2026-05-05 09:42 43.81244 1.57792 36965 ft 419 kts 247°
2026-05-05 09:43 43.79125 1.50328 36964 ft 419 kts 247°
2026-05-05 09:43 43.76983 1.42809 36970 ft 419 kts 247°
2026-05-05 09:44 43.74831 1.35276 36964 ft 420 kts 247°
2026-05-05 09:44 43.72692 1.27809 36968 ft 420 kts 247°
2026-05-05 09:45 43.70519 1.20250 36964 ft 420 kts 247°
2026-05-05 09:45 43.68356 1.12746 36971 ft 420 kts 247°
2026-05-05 09:46 43.66199 1.05286 36955 ft 420 kts 247°
2026-05-05 09:46 43.64027 0.97793 36966 ft 420 kts 247°
2026-05-05 09:47 43.61847 0.90297 36970 ft 420 kts 247°
2026-05-05 09:47 43.59667 0.82827 36973 ft 420 kts 247°
2026-05-05 09:48 43.57480 0.75350 36981 ft 419 kts 247°
2026-05-05 09:48 43.55299 0.67917 36968 ft 420 kts 247°
2026-05-05 09:49 43.53100 0.60447 36984 ft 420 kts 247°
2026-05-05 09:49 43.50901 0.52997 36985 ft 420 kts 247°
2026-05-05 09:50 43.48693 0.45536 36976 ft 420 kts 246°
2026-05-05 09:50 43.46487 0.38106 36979 ft 421 kts 246°
2026-05-05 09:51 43.44259 0.30624 36983 ft 421 kts 246°
2026-05-05 09:51 43.42044 0.23207 36985 ft 421 kts 246°
2026-05-05 09:52 43.39813 0.15758 36988 ft 420 kts 246°
2026-05-05 09:52 43.37581 0.08326 36995 ft 420 kts 246°
2026-05-05 09:53 43.35343 0.00898 36988 ft 420 kts 246°
2026-05-05 09:53 43.33098 -0.06534 36996 ft 420 kts 246°
2026-05-05 09:54 43.30868 -0.13894 36989 ft 420 kts 246°
2026-05-05 09:54 43.28618 -0.21301 36995 ft 420 kts 246°
2026-05-05 09:55 43.26363 -0.28703 36991 ft 420 kts 246°
2026-05-05 09:55 43.24097 -0.36118 36992 ft 420 kts 246°
2026-05-05 09:56 43.21841 -0.43479 36987 ft 420 kts 246°
2026-05-05 09:56 43.19566 -0.50883 36997 ft 420 kts 246°
2026-05-05 09:57 43.17301 -0.58233 36987 ft 421 kts 246°
2026-05-05 09:57 43.15019 -0.65615 36996 ft 421 kts 246°
2026-05-05 09:58 43.12729 -0.73005 36997 ft 421 kts 246°
2026-05-05 09:58 43.10431 -0.80398 36990 ft 422 kts 246°
2026-05-05 09:59 43.08133 -0.87774 37004 ft 421 kts 246°
2026-05-05 09:59 43.05826 -0.95158 36991 ft 422 kts 246°
2026-05-05 10:00 43.03527 -1.02499 36988 ft 421 kts 246°
2026-05-05 10:00 43.01209 -1.09858 36994 ft 421 kts 245°
2026-05-05 10:01 42.98268 -1.16766 37014 ft 420 kts 237°
2026-05-05 10:01 42.95099 -1.23495 37002 ft 420 kts 237°
2026-05-05 10:02 42.91981 -1.30193 37002 ft 420 kts 238°
2026-05-05 10:02 42.88855 -1.36945 37002 ft 420 kts 238°
2026-05-05 10:03 42.85731 -1.43686 37004 ft 421 kts 238°
2026-05-05 10:03 42.82602 -1.50423 37004 ft 420 kts 238°
2026-05-05 10:04 42.79464 -1.57162 36999 ft 421 kts 238°
2026-05-05 10:04 42.76319 -1.63905 36992 ft 422 kts 238°
2026-05-05 10:05 42.73345 -1.70717 36983 ft 421 kts 245°
2026-05-05 10:05 42.71794 -1.77015 37002 ft 422 kts 252°
2026-05-05 10:06 42.70117 -1.84684 36996 ft 422 kts 252°
2026-05-05 10:06 42.68399 -1.92299 37005 ft 423 kts 252°
2026-05-05 10:07 42.66661 -1.99951 36999 ft 423 kts 252°
2026-05-05 10:07 42.64923 -2.07596 36995 ft 423 kts 252°
2026-05-05 10:08 42.63174 -2.15261 36998 ft 423 kts 252°
2026-05-05 10:08 42.61373 -2.22834 36996 ft 423 kts 251°
2026-05-05 10:09 42.59512 -2.30438 36998 ft 424 kts 251°
2026-05-05 10:09 42.57652 -2.38042 36995 ft 424 kts 251°
2026-05-05 10:10 42.55795 -2.45639 36996 ft 424 kts 251°
2026-05-05 10:10 42.53944 -2.53201 36999 ft 424 kts 251°
2026-05-05 10:11 42.52075 -2.60808 37000 ft 425 kts 251°
2026-05-05 10:11 42.50199 -2.68422 36998 ft 425 kts 251°
2026-05-05 10:12 42.48330 -2.75981 37001 ft 425 kts 251°
2026-05-05 10:12 42.46447 -2.83580 36992 ft 426 kts 251°
2026-05-05 10:13 42.44404 -2.91119 36996 ft 425 kts 246°
2026-05-05 10:13 42.41907 -2.98391 36998 ft 425 kts 245°
2026-05-05 10:14 42.39376 -3.05644 37006 ft 425 kts 245°
2026-05-05 10:14 42.36892 -3.12846 36999 ft 425 kts 245°
2026-05-05 10:15 42.34405 -3.20095 37012 ft 425 kts 245°
2026-05-05 10:15 42.31913 -3.27358 37010 ft 425 kts 245°
2026-05-05 10:16 42.29408 -3.34637 37023 ft 425 kts 245°
2026-05-05 10:16 42.26921 -3.41845 37015 ft 426 kts 245°
2026-05-05 10:17 42.24409 -3.49106 37017 ft 426 kts 245°
2026-05-05 10:17 42.21895 -3.56353 37020 ft 426 kts 245°
2026-05-05 10:18 42.19372 -3.63608 37018 ft 427 kts 245°
2026-05-05 10:18 42.16842 -3.70862 37015 ft 427 kts 245°
2026-05-05 10:19 42.14326 -3.78059 37012 ft 427 kts 245°
2026-05-05 10:19 42.11782 -3.85318 37014 ft 427 kts 245°
2026-05-05 10:20 42.09253 -3.92515 37011 ft 427 kts 245°
2026-05-05 10:20 42.06703 -3.99756 37004 ft 427 kts 245°
2026-05-05 10:21 42.04150 -4.06988 37008 ft 427 kts 245°
2026-05-05 10:21 42.01628 -4.14236 37006 ft 427 kts 247°
2026-05-05 10:22 41.99319 -4.21543 37012 ft 427 kts 248°
2026-05-05 10:22 41.97025 -4.28913 37010 ft 427 kts 248°
2026-05-05 10:23 41.94704 -4.36271 37008 ft 427 kts 248°
2026-05-05 10:23 41.92370 -4.43596 37015 ft 427 kts 248°
2026-05-05 10:24 41.90034 -4.50890 37006 ft 427 kts 248°
2026-05-05 10:24 41.87678 -4.58226 37010 ft 427 kts 248°
2026-05-05 10:25 41.85319 -4.65554 37019 ft 427 kts 248°
2026-05-05 10:25 41.82954 -4.72880 37015 ft 427 kts 248°
2026-05-05 10:26 41.80597 -4.80163 37018 ft 427 kts 248°
2026-05-05 10:26 41.78228 -4.87464 37023 ft 427 kts 248°
2026-05-05 10:27 41.75848 -4.94777 37017 ft 427 kts 248°
2026-05-05 10:27 41.73464 -5.02087 37019 ft 428 kts 249°
2026-05-05 10:28 41.71082 -5.09399 37000 ft 428 kts 248°
2026-05-05 10:28 41.68697 -5.16652 37011 ft 428 kts 248°
2026-05-05 10:29 41.66288 -5.23962 37013 ft 428 kts 248°
2026-05-05 10:29 41.63884 -5.31252 37012 ft 428 kts 248°
2026-05-05 10:30 41.61481 -5.38521 36570 ft 435 kts 248°
2026-05-05 10:30 41.60257 -5.42216 36186 ft 432 kts 248°
2026-05-05 10:30 41.59040 -5.45883 35761 ft 428 kts 248°
2026-05-05 10:31 41.57849 -5.49468 35358 ft 423 kts 248°
2026-05-05 10:31 41.56658 -5.53053 34966 ft 422 kts 248°
2026-05-05 10:31 41.55468 -5.56629 34578 ft 421 kts 248°
2026-05-05 10:31 41.54276 -5.60205 34194 ft 420 kts 248°
2026-05-05 10:32 41.53271 -5.63863 33757 ft 417 kts 256°
2026-05-05 10:32 41.52677 -5.67651 33306 ft 416 kts 264°
2026-05-05 10:32 41.52442 -5.71469 32891 ft 419 kts 266°
2026-05-05 10:32 41.52196 -5.75372 32454 ft 425 kts 265°
2026-05-05 10:33 41.51925 -5.79311 32029 ft 427 kts 265°
2026-05-05 10:33 41.51642 -5.83248 31603 ft 426 kts 265°
2026-05-05 10:33 41.51354 -5.87187 31183 ft 426 kts 265°
2026-05-05 10:33 41.51065 -5.91115 30762 ft 425 kts 265°
2026-05-05 10:34 41.50775 -5.95036 30361 ft 425 kts 265°
2026-05-05 10:34 41.50485 -5.98956 29935 ft 425 kts 265°
2026-05-05 10:34 41.50194 -6.02890 29449 ft 426 kts 265°
2026-05-05 10:34 41.49901 -6.06827 28981 ft 428 kts 265°
2026-05-05 10:35 41.49604 -6.10816 28512 ft 434 kts 265°
2026-05-05 10:35 41.49306 -6.14794 28063 ft 437 kts 265°
2026-05-05 10:35 41.49001 -6.18850 27598 ft 437 kts 265°
2026-05-05 10:35 41.48695 -6.22893 27153 ft 438 kts 265°
2026-05-05 10:36 41.48384 -6.26940 26721 ft 438 kts 265°
2026-05-05 10:36 41.47900 -6.30945 26274 ft 439 kts 259°
2026-05-05 10:36 41.47194 -6.34840 25917 ft 431 kts 258°
2026-05-05 10:36 41.46465 -6.38667 25576 ft 420 kts 258°
2026-05-05 10:37 41.45750 -6.42400 25254 ft 411 kts 258°
2026-05-05 10:37 41.45057 -6.46065 24928 ft 402 kts 258°
2026-05-05 10:37 41.44386 -6.49657 24622 ft 397 kts 258°
2026-05-05 10:37 41.43726 -6.53229 24322 ft 397 kts 258°
2026-05-05 10:38 41.43070 -6.56803 24014 ft 396 kts 259°
2026-05-05 10:38 41.42416 -6.60370 23716 ft 395 kts 259°
2026-05-05 10:38 41.41764 -6.63928 23372 ft 395 kts 259°
2026-05-05 10:38 41.41111 -6.67485 22997 ft 394 kts 259°
2026-05-05 10:39 41.40460 -6.71022 22652 ft 394 kts 259°
2026-05-05 10:39 41.39807 -6.74563 22289 ft 393 kts 259°
2026-05-05 10:39 41.39154 -6.78100 21940 ft 392 kts 259°
2026-05-05 10:39 41.38510 -6.81580 21598 ft 390 kts 259°
2026-05-05 10:40 41.37860 -6.85081 21251 ft 389 kts 259°
2026-05-05 10:40 41.37208 -6.88587 20900 ft 387 kts 259°
2026-05-05 10:40 41.36564 -6.92045 20559 ft 384 kts 259°
2026-05-05 10:40 41.35921 -6.95491 20239 ft 382 kts 259°
2026-05-05 10:41 41.35288 -6.98878 19912 ft 380 kts 259°
2026-05-05 10:41 41.34649 -7.02293 19587 ft 379 kts 259°
2026-05-05 10:41 41.34013 -7.05683 19259 ft 377 kts 259°
2026-05-05 10:41 41.33382 -7.09044 18935 ft 371 kts 259°
2026-05-05 10:42 41.32149 -7.15575 18296 ft 356 kts 259°
2026-05-05 10:42 41.31555 -7.18723 17927 ft 350 kts 259°
2026-05-05 10:42 41.30965 -7.21846 17569 ft 345 kts 259°
2026-05-05 10:43 41.30381 -7.24932 17236 ft 343 kts 259°
2026-05-05 10:43 41.29799 -7.28003 16913 ft 341 kts 259°
2026-05-05 10:43 41.29225 -7.31025 16599 ft 339 kts 259°
2026-05-05 10:43 41.28649 -7.34057 16291 ft 337 kts 259°
2026-05-05 10:44 41.28073 -7.37080 15972 ft 336 kts 259°
2026-05-05 10:44 41.27499 -7.40083 15677 ft 334 kts 259°
2026-05-05 10:44 41.26927 -7.43074 15371 ft 333 kts 259°
2026-05-05 10:44 41.26358 -7.46054 15089 ft 331 kts 259°
2026-05-05 10:45 41.25790 -7.49017 14807 ft 329 kts 259°
2026-05-05 10:45 41.25225 -7.51961 14555 ft 328 kts 259°
2026-05-05 10:45 41.24666 -7.54865 14280 ft 327 kts 259°
2026-05-05 10:45 41.24105 -7.57787 14018 ft 325 kts 259°
2026-05-05 10:46 41.23544 -7.60694 13754 ft 321 kts 259°
2026-05-05 10:46 41.22993 -7.63544 13475 ft 315 kts 259°
2026-05-05 10:46 41.22451 -7.66341 13195 ft 311 kts 259°
2026-05-05 10:46 41.21916 -7.69102 12937 ft 307 kts 259°
2026-05-05 10:47 41.21564 -7.70919 12767 ft 306 kts 259°
2026-05-05 10:47 41.20860 -7.74549 12414 ft 305 kts 259°
2026-05-05 10:47 41.20332 -7.77269 12163 ft 304 kts 259°
2026-05-05 10:47 41.19804 -7.79983 11905 ft 303 kts 258°
2026-05-05 10:48 41.19278 -7.82685 11655 ft 302 kts 258°
2026-05-05 10:48 41.18922 -7.84507 11472 ft 301 kts 258°
2026-05-05 10:48 41.18396 -7.87198 11223 ft 300 kts 258°
2026-05-05 10:48 41.17845 -7.89842 11129 ft 304 kts 254°
2026-05-05 10:49 41.17032 -7.92467 11105 ft 307 kts 249°
2026-05-05 10:49 41.16117 -7.95017 11081 ft 304 kts 247°
2026-05-05 10:49 41.15194 -7.97541 10957 ft 306 kts 248°
2026-05-05 10:49 41.14271 -8.00085 10696 ft 304 kts 248°
2026-05-05 10:50 41.13368 -8.02606 10447 ft 300 kts 248°
2026-05-05 10:50 41.12488 -8.05089 10201 ft 295 kts 248°
2026-05-05 10:50 41.11631 -8.07522 9950 ft 291 kts 249°
2026-05-05 10:50 41.10779 -8.09955 9671 ft 288 kts 249°
2026-05-05 10:51 41.09944 -8.12341 9402 ft 284 kts 249°
2026-05-05 10:51 41.09131 -8.14664 9149 ft 278 kts 249°
2026-05-05 10:51 41.08320 -8.16982 8907 ft 275 kts 249°
2026-05-05 10:51 41.07519 -8.19278 8652 ft 272 kts 249°
2026-05-05 10:52 41.06724 -8.21555 8403 ft 270 kts 249°
2026-05-05 10:52 41.05947 -8.23776 8152 ft 267 kts 249°
2026-05-05 10:52 41.05171 -8.25994 7905 ft 264 kts 248°
2026-05-05 10:52 41.04398 -8.28199 7667 ft 262 kts 248°
2026-05-05 10:53 41.03634 -8.30375 7432 ft 260 kts 248°
2026-05-05 10:53 41.02876 -8.32555 7170 ft 257 kts 250°
2026-05-05 10:53 41.02391 -8.34785 6924 ft 253 kts 261°
2026-05-05 10:53 41.02055 -8.37075 6680 ft 252 kts 262°
2026-05-05 10:54 41.01719 -8.39353 6436 ft 251 kts 261°
2026-05-05 10:54 41.01378 -8.41620 6182 ft 250 kts 261°
2026-05-05 10:54 41.01031 -8.43852 5916 ft 250 kts 261°
2026-05-05 10:54 41.00672 -8.46101 5657 ft 248 kts 260°
2026-05-05 10:55 41.00314 -8.48332 5396 ft 247 kts 261°
2026-05-05 10:55 40.99981 -8.50551 5144 ft 245 kts 261°
2026-05-05 10:55 40.99658 -8.52745 4886 ft 244 kts 261°
2026-05-05 10:55 40.99335 -8.54923 4666 ft 237 kts 261°
2026-05-05 10:56 40.99033 -8.57028 4422 ft 228 kts 265°
2026-05-05 10:56 40.99220 -8.59038 4177 ft 217 kts 295°
2026-05-05 10:56 41.00095 -8.60600 3940 ft 208 kts 322°
2026-05-05 10:56 41.01349 -8.61465 3725 ft 200 kts 340°
2026-05-05 10:57 41.02645 -8.62051 3515 ft 194 kts 341°
2026-05-05 10:57 41.03905 -8.62569 3336 ft 185 kts 344°
2026-05-05 10:57 41.05129 -8.62974 3160 ft 177 kts 346°
2026-05-05 10:57 41.06311 -8.63323 2962 ft 172 kts 347°
2026-05-05 10:58 41.07483 -8.63649 2819 ft 172 kts 348°
2026-05-05 10:58 41.08650 -8.63962 2718 ft 171 kts 347°
2026-05-05 10:58 41.09803 -8.64265 2691 ft 165 kts 348°
2026-05-05 10:58 41.10945 -8.64562 2671 ft 170 kts 348°
2026-05-05 10:59 41.12108 -8.64863 2487 ft 167 kts 348°
2026-05-05 10:59 41.13213 -8.65146 2312 ft 156 kts 348°
2026-05-05 10:59 41.14309 -8.65428 2252 ft 176 kts 347°
2026-05-05 10:59 41.15471 -8.65723 2370 ft 162 kts 348°
2026-05-05 11:00 41.16562 -8.66015 2026 ft 162 kts 347°
2026-05-05 11:00 41.17675 -8.66296 1653 ft 161 kts 349°
2026-05-05 11:00 41.18767 -8.66540 1284 ft 157 kts 349°
2026-05-05 11:00 41.19808 -8.66787 1004 ft 147 kts 347°
2026-05-05 11:01 41.20798 -8.67074 773 ft 145 kts 347°
2026-05-05 11:01 41.21787 -8.67317 564 ft 144 kts 347°
2026-05-05 11:01 41.22752 -8.67580 366 ft 144 kts 345°
2026-05-05 11:01 41.23723 -8.67835 239 ft 139 kts 346°
2026-05-05 11:02 41.24561 -8.68064 237 ft 101 kts 349°
2026-05-05 11:02 41.25119 -8.68208 233 ft 69 kts 349°
2026-05-05 11:02 41.25504 -8.68307 234 ft 40 kts 349°
2026-05-05 11:02 41.25658 -8.68282 236 ft 12 kts 67°
2026-05-05 11:03 41.25673 -8.68179 234 ft 11 kts 86°
2026-05-05 11:03 41.25630 -8.68108 237 ft 11 kts 168°
2026-05-05 11:03 41.25557 -8.68088 234 ft 11 kts 168°
2026-05-05 11:03 41.25485 -8.68068 239 ft 10 kts 170°
2026-05-05 11:04 41.25415 -8.68051 234 ft 10 kts 169°
2026-05-05 11:04 41.25347 -8.68033 234 ft 10 kts 168°
2026-05-05 11:04 41.25281 -8.68016 234 ft 10 kts 169°
2026-05-05 11:04 41.25217 -8.67999 234 ft 9 kts 169°
2026-05-05 11:05 41.25154 -8.67982 234 ft 10 kts 169°
2026-05-05 11:05 41.25083 -8.67964 234 ft 12 kts 169°
2026-05-05 11:05 41.24996 -8.67941 234 ft 14 kts 169°
2026-05-05 11:05 41.24895 -8.67914 237 ft 15 kts 165°
2026-05-05 11:06 41.24804 -8.67853 237 ft 14 kts 151°
2026-05-05 11:06 41.24712 -8.67812 238 ft 14 kts 169°
2026-05-05 11:06 41.24620 -8.67789 236 ft 13 kts 169°
2026-05-05 11:06 41.24533 -8.67766 234 ft 13 kts 168°
2026-05-05 11:07 41.24447 -8.67743 234 ft 12 kts 168°
2026-05-05 11:07 41.24363 -8.67721 234 ft 12 kts 169°
2026-05-05 11:07 41.24288 -8.67679 237 ft 12 kts 135°
2026-05-05 11:07 41.24239 -8.67593 237 ft 11 kts 126°
2026-05-05 11:08 41.24190 -8.67512 236 ft 11 kts 137°
2026-05-05 11:08 41.24126 -8.67456 236 ft 11 kts 153°
2026-05-05 11:08 41.24055 -8.67425 234 ft 11 kts 168°
2026-05-05 11:08 41.23985 -8.67423 237 ft 10 kts 208°
2026-05-05 11:09 41.23933 -8.67468 236 ft 9 kts 213°
2026-05-05 11:09 41.23877 -8.67487 234 ft 8 kts 172°
2026-05-05 11:09 41.23820 -8.67473 234 ft 8 kts 169°
2026-05-05 11:09 41.23766 -8.67457 236 ft 8 kts 160°
2026-05-05 11:10 41.23728 -8.67406 236 ft 7 kts 126°
2026-05-05 11:10 41.23710 -8.67359 236 ft 5 kts 95°
2026-05-05 11:10 41.23715 -8.67326 234 ft 3 kts 72°
2026-05-05 11:10 41.23723 -8.67300 238 ft 3 kts 69°
2026-05-05 11:11 41.23729 -8.67278 235 ft 1 kts 69°
2026-05-05 11:11 41.23732 -8.67268 235 ft 1 kts 69°
2026-05-05 11:11 41.23733 -8.67265 234 ft 0 kts 69°
2026-05-05 11:12 41.23732 -8.67269 235 ft 0 kts 69°